CBERS 4

Last updated on Mon Sep 21 2026 00:02:45 GMT+0000 (Coordinated Universal Time)

1 40336U 14079A 26263.59799817 .00000306 00000+0 12115-3 0 9992 2 40336 98.3434 317.3885 0002007 90.5327 269.6090 14.35515589617641
UTC large
Height (km)
Speed (km/s)
/
Latitude / Longitude
Inclination (degrees)
Orbital Period (minutes)
Azimuth
Elevation
Range (km)
Doppler Factor

Next 0 passes for location: London (51.5072 / 0.1276)

No passes found over London.
CBERS 4